Probability
0 0 0 0 0 0 0 0 0 0 0 0 0 0 0 0 0 0 0 0 0 0 0 0 0 0 0 0 0 0 0 0 0 0 0 0 0 0 1 1 1 1 2 3
0 0 0 0 0 0 0 0 0 0 0 0 0 0 0 0 0 0 0 0 0 0 0 0 0 0 0 0 0 0 0 0 0 0 0 0 0 0 0 0 0 1 2 3
0 0 0 0 0 0 0 0 0 0 0 0 0 0 0 0 0 0 0 0 0 0 0 0 0 0 0 0 0 0 0 0 0 0 0 0 0 0 0 0 0 0 1 2
0 0 0 0 0 0 0 0 0 0 0 0 0 0 0 0 0 0 0 0 0 0 0 0 0 0 0 0 0 0 0 0 0 0 0 0 0 0 0 0 0 0 1 2
0 0 0 0 0 0 0 0 0 0 0 0 0 0 0 0 0 0 0 0 0 0 0 0 0 0 0 0 0 0 0 0 0 0 0 0 0 0 0 0 0 0 1 2
0 0 0 0 0 0 0 0 0 0 0 0 0 0 0 0 0 0 0 0 0 0 0 0 0 0 0 0 0 0 0 0 0 0 0 0 0 0 0 0 0 0 0 1
0 0 0 0 0 0 0 0 0 0 0 0 0 0 0 0 0 0 0 0 0 0 0 0 0 0 0 0 0 0 0 0 0 0 0 0 0 0 0 0 0 0 0 0
0 0 0 0 0 0 0 0 0 0 0 0 0 0 0 0 0 0 0 0 0 0 0 0 0 0 0 0 0 0 0 0 0 0 0 0 0 0 0 0 0 0 0 0
0 0 0 0 0 0 0 0 0 0 0 0 0 0 0 0 0 0 0 0 0 0 0 0 0 0 0 0 0 0 0 0 0 0 0 0 0 0 0 0 0 0 0 0
0 0 0 0 0 0 0 0 0 0 0 0 0 0 0 0 0 0 0 0 0 0 0 0 0 0 0 0 0 0 0 0 0 0 0 0 0 0 0 0 0 0 0 0
0 0 0 0 0 0 0 0 0 0 0 0 0 0 0 0 0 0 0 0 0 0 0 0 0 0 0 0 0 0 0 0 0 0 0 0 0 0 0 0 0 0 0 0
0 0 0 0 0 0 0 0 0 0 0 0 0 0 0 0 0 0 0 0 0 0 0 0 0 0 0 0 0 0 0 0 0 0 0 0 0 0 0 0 0 0 0 0
0 0 0 0 0 0 0 0 0 0 0 0 0 0 0 0 0 0 0 0 0 0 0 0 0 0 0 0 0 0 0 0 0 0 0 0 0 0 0 0 0 0 0 0
0 0 0 0 0 0 0 0 0 0 0 0 0 0 0 0 0 0 0 0 0 0 0 0 0 0 0 0 0 0 0 0 0 0 0 0 0 0 0 0 0 0 0 0
0 0 0 0 0 0 0 0 0 0 0 0 0 0 0 0 0 0 0 0 0 0 0 0 0 0 0 0 0 0 1 1 0 0 0 0 0 0 0 0 0 0 0 0
0 0 0 0 0 0 0 0 0 0 0 0 0 0 0 0 0 0 0 0 0 0 0 0 0 0 0 0 0 0 1 1 0 0 0 0 0 0 0 0 0 0 0 0
0 0 0 0 0 0 0 0 0 0 0 0 0 0 0 0 0 0 0 0 0 0 0 0 0 0 0 0 0 0 0 0 0 0 0 0 0 0 0 0 0 0 0 0
0 0 0 0 0 0 0 0 0 0 0 0 0 0 0 0 0 0 0 0 0 0 0 0 0 0 0 0 0 0 0 0 0 0 0 0 0 0 0 0 0 0 0 0
0 0 0 0 0 0 0 0 0 0 0 0 0 0 0 0 0 0 0 0 0 0 0 0 0 0 0 0 0 0 0 0 0 0 0 0 0 0 0 0 0 0 0 0
0 0 0 0 0 0 0 0 0 0 0 0 0 0 0 0 0 0 0 0 0 0 0 0 0 0 0 0 0 0 0 0 0 0 0 0 0 0 0 0 0 0 0 0
0 0 0 0 0 0 0 0 0 0 0 0 0 0 0 0 0 0 0 0 0 0 0 0 0 0 0 0 0 0 0 0 0 0 0 0 0 0 0 0 0 0 0 0
0 0 0 0 0 0 0 0 0 0 0 0 0 0 0 0 0 0 0 0 0 0 0 0 0 0 0 0 0 0 0 0 0 0 0 0 0 0 0 0 0 0 0 0
0 0 0 0 0 0 0 0 0 0 0 0 0 0 0 0 0 0 0 0 0 0 0 0 0 0 0 0 0 0 0 0 0 0 0 0 0 0 0 0 0 0 0 0
0 0 0 0 0 0 0 0 0 0 0 0 0 0 0 0 0 0 0 0 0 0 0 0 0 0 0 0 0 0 0 0 0 0 0 0 0 0 0 0 0 0 0 0
0 0 0 0 0 0 0 0 0 0 0 0 0 0 0 0 0 0 0 0 0 0 0 0 0 0 0 0 0 0 0 0 0 0 0 0 0 0 0 0 0 0 0 0
0 0 0 0 0 0 0 0 0 0 0 0 0 0 0 0 0 0 0 0 0 0 0 0 0 0 0 0 0 0 0 0 0 0 0 0 0 0 0 0 0 0 0 0
Wind_Speed
4 2 3 3 3 3 4 5 7 5 1 4 9 13 12 7 6 7 6 4 4 3 2 1 1 1 2 3 3 3 4 4 3 2 3 3 3 3 3 3 4 4 4 4
3 4 3 1 1 3 5 6 7 5 2 5 9 14 13 7 7 5 5 4 4 2 1 1 1 2 3 3 3 4 4 4 3 3 3 3 3 3 4 4 4 5 5 5
4 1 1 2 2 4 5 5 5 6 9 7 7 11 6 2 3 3 4 4 3 3 2 2 2 3 2 3 3 4 4 4 4 4 3 3 3 3 3 4 4 5 6 5
4 3 2 3 4 3 4 2 4 6 6 4 1 7 5 3 4 5 5 4 4 3 3 3 3 3 3 3 3 4 5 5 5 4 4 5 5 5 5 5 4 5 6 7
2 3 3 4 3 2 2 3 4 5 5 6 4 5 9 4 5 5 5 4 3 3 3 3 3 3 3 3 3 4 5 5 5 4 4 5 5 5 5 5 6 6 6 7
2 1 2 1 1 0 2 3 4 3 2 5 6 6 7 4 5 5 4 3 2 2 2 3 3 3 4 3 4 4 5 5 5 5 5 6 7 7 7 7 7 6 5 6
5 5 3 1 1 2 1 1 1 1 2 6 3 4 8 2 2 4 5 4 2 2 2 3 4 4 4 5 5 4 4 5 5 5 5 6 7 7 8 8 7 7 6 6
4 5 7 5 3 2 2 1 2 3 4 3 1 6 6 2 3 3 2 2 2 2 3 4 4 5 5 5 5 5 5 6 6 6 6 6 6 5 5 7 7 7 7 7
3 2 4 4 1 1 2 2 0 1 3 5 6 5 3 3 2 2 2 1 2 3 3 3 4 4 4 5 5 5 6 6 6 6 6 6 6 6 7 7 7 7 7 7
1 2 4 3 2 2 2 0 2 2 2 5 6 5 4 5 4 4 3 3 3 3 3 4 4 4 4 5 5 5 6 7 7 6 6 6 6 7 7 7 8 8 8 8
1 3 3 4 7 6 4 3 3 3 3 3 5 5 1 3 3 3 3 3 3 4 4 4 4 4 5 5 5 6 6 6 6 6 6 6 7 7 7 7 8 8 8 8
4 2 3 4 2 1 5 6 6 4 5 4 4 8 1 1 1 1 1 2 3 4 4 4 4 4 5 6 6 6 6 6 7 7 7 7 7 7 7 8 9 8 8 7
5 4 2 1 1 1 3 5 5 3 2 5 6 9 1 1 1 2 3 4 4 4 4 4 4 5 6 6 7 6 6 7 7 7 7 7 7 7 8 8 8 7 7 7
4 4 7 7 3 5 5 6 7 6 6 7 11 12 9 5 5 5 5 5 5 4 4 5 5 6 6 7 7 7 7 7 7 7 7 7 8 8 8 8 7 7 6 7
4 5 6 8 7 5 8 9 11 13 12 10 11 14 14 9 7 6 5 6 6 6 6 6 6 6 7 7 7 7 7 7 7 7 7 7 8 7 7 7 7 6 6 7
4 4 4 7 9 9 12 12 14 16 16 18 17 21 14 10 7 7 6 6 7 7 6 7 7 7 8 8 8 8 7 7 7 7 8 7 7 7 7 7 7 6 6 6
6 5 4 5 4 6 13 14 15 13 12 12 18 18 9 8 7 7 6 6 6 7 7 7 7 7 7 8 7 7 7 7 7 7 8 7 7 7 7 7 7 6 6 5
8 6 3 3 2 11 10 6 11 14 15 14 12 10 7 7 5 5 5 5 6 7 6 6 6 7 7 7 7 7 6 6 6 7 7 7 7 7 7 6 7 6 5 5
9 8 5 4 6 10 8 6 7 8 11 11 13 11 8 5 6 6 4 4 5 5 5 6 6 7 7 7 7 6 6 6 6 7 7 8 7 8 7 7 7 5 5 5
7 7 6 6 7 9 5 3 4 2 8 5 6 7 5 1 4 6 5 5 5 6 5 5 6 6 6 7 6 6 7 6 7 7 7 8 7 7 7 7 7 5 5 5
9 8 11 10 9 9 4 4 6 4 7 1 2 2 2 3 5 4 5 5 5 5 6 6 6 6 6 6 6 6 7 7 7 7 7 8 7 7 7 6 5 5 5 4
12 10 10 8 10 11 4 6 7 5 1 2 1 1 1 2 3 4 5 6 6 6 6 6 6 6 6 5 5 6 7 7 7 7 7 7 7 7 7 6 5 4 4 4
9 9 7 9 9 2 6 4 3 0 1 2 2 2 2 3 4 5 6 6 6 6 6 6 6 6 6 5 5 7 7 7 7 7 7 7 8 7 6 6 6 5 4 3
4 3 3 4 6 3 3 2 2 2 2 2 1 2 2 4 5 6 6 6 6 6 6 6 6 6 6 6 6 6 7 7 7 7 7 7 7 7 6 5 4 4 4 4
4 4 4 6 5 4 4 3 2 1 1 2 2 2 2 4 5 5 5 5 5 6 6 5 6 6 7 6 6 6 7 7 7 7 7 6 6 6 5 5 5 5 4 5
5 6 7 7 5 4 3 2 1 2 2 2 2 3 3 3 5 5 5 5 5 5 5 6 6 6 6 6 6 6 6 6 7 7 6 5 5 5 5 5 6 7 7 9
Wind_Direction
184 222 220 214 216 282 305 295 286 288 330 293 271 276 276 255 238 240 238 230 217 221 211 199 229 247 259 264 276 286 291 281 268 273 267 267 264 262 266 257 259 262 254 246
200 229 228 184 247 276 276 280 283 292 332 296 282 280 274 251 235 233 228 224 207 201 239 252 269 269 260 264 280 286 287 284 269 262 262 253 261 260 257 254 256 254 253 246
227 114 157 218 240 265 265 260 294 310 314 264 276 288 241 181 190 194 209 207 196 201 223 250 267 275 282 276 271 285 286 284 269 267 274 274 275 278 272 264 260 255 254 246
236 173 203 234 247 253 269 355 314 303 309 294 279 294 270 188 189 196 206 205 203 206 216 246 268 280 284 273 269 274 282 278 271 270 270 269 271 270 268 263 258 259 255 246
221 156 199 236 255 250 278 333 292 281 275 289 246 246 276 182 205 199 194 202 203 207 218 245 258 266 275 273 264 266 270 272 270 266 263 265 270 270 271 270 267 268 260 246
241 137 215 273 10 278 297 285 255 246 256 269 227 211 271 208 198 180 177 190 201 223 238 246 258 267 281 283 276 265 265 271 273 269 263 259 265 271 274 273 268 264 258 248
204 191 170 141 190 181 246 339 342 299 243 251 172 215 253 238 142 167 183 197 209 244 274 271 276 278 286 287 276 267 269 279 278 275 271 262 263 265 266 267 265 266 264 255
205 202 172 180 187 180 219 202 181 244 270 301 263 241 254 157 123 133 161 184 212 246 265 271 267 273 278 282 283 280 280 284 284 279 274 267 266 264 264 265 265 263 260 254
209 175 130 162 204 222 188 200 332 240 281 280 255 241 248 159 144 169 206 250 265 271 277 287 284 282 285 285 279 275 282 285 285 281 279 278 273 272 270 269 269 268 266 261
219 195 163 136 160 261 287 167 132 183 246 271 269 243 230 189 205 213 227 261 273 279 291 300 292 289 291 286 284 286 282 282 280 279 279 283 280 277 271 272 271 272 270 264
188 169 160 172 201 188 179 191 200 221 244 247 280 270 310 164 186 209 234 258 270 288 295 293 292 294 294 290 289 291 290 291 289 284 281 282 282 282 279 275 271 268 267 261
183 170 218 207 166 204 193 190 174 185 231 228 261 271 283 109 111 146 275 287 293 297 296 296 295 300 300 298 298 294 294 294 290 288 287 283 281 282 280 279 275 270 267 261
160 162 186 211 208 214 237 218 204 210 224 224 233 260 240 63 313 293 284 294 300 304 308 314 315 310 304 303 301 297 295 292 290 289 288 285 283 281 278 280 277 272 270 266
153 191 205 213 201 174 216 225 209 192 211 233 234 256 270 272 278 281 285 292 298 307 315 316 311 305 303 304 304 302 298 295 295 293 287 284 283 282 281 284 278 272 270 267
172 218 236 257 264 234 229 223 210 214 220 230 249 256 266 278 293 301 305 308 310 312 314 313 310 307 307 307 304 300 297 297 296 293 289 286 284 283 284 288 287 280 275 274
187 223 241 255 243 249 253 236 224 227 231 242 259 267 267 285 300 301 303 306 305 308 309 313 313 310 309 307 303 301 299 300 300 296 293 293 294 291 289 291 294 282 274 274
181 189 214 249 238 271 254 229 220 221 221 224 243 254 277 286 286 291 299 297 298 303 309 312 312 309 308 306 303 301 302 305 305 301 301 298 296 295 290 290 292 281 275 276
176 181 214 255 242 239 242 197 208 225 236 228 241 259 268 272 281 287 286 291 302 308 313 315 315 311 308 304 306 305 307 308 304 303 305 304 303 300 296 293 289 278 276 273
187 181 205 220 242 266 265 228 203 214 251 230 237 255 267 283 300 288 277 297 301 310 313 309 307 305 307 307 307 310 309 308 306 305 305 306 304 304 301 299 294 284 278 275
194 186 206 217 232 242 248 175 144 146 267 243 222 243 257 286 291 288 325 327 317 318 317 315 314 313 311 308 312 314 308 309 304 304 304 304 304 304 303 301 298 289 278 279
188 200 215 225 239 255 251 143 121 180 248 283 200 225 227 229 242 279 319 322 319 317 317 318 317 312 305 308 315 310 306 308 307 306 308 309 309 306 303 300 294 287 289 285
185 192 203 207 227 243 169 149 184 215 346 23 30 22 331 301 310 316 317 317 318 317 316 317 317 311 312 314 316 311 306 307 311 311 307 308 309 307 304 301 303 299 301 295
198 197 194 203 220 227 159 191 226 351 326 331 355 348 337 318 311 312 315 317 317 316 317 318 314 308 310 313 313 309 309 312 312 314 313 309 308 308 309 309 310 309 303 297
225 206 229 251 251 250 228 241 249 258 261 280 297 308 302 293 297 301 304 309 312 313 313 314 313 309 310 313 311 308 312 317 318 318 317 313 312 314 317 317 311 307 305 300
212 190 223 254 271 276 249 239 245 270 299 306 301 289 288 290 290 291 297 300 303 308 311 316 315 308 308 314 314 316 319 323 321 317 316 317 318 318 321 321 315 307 300 294
211 209 214 236 220 223 252 247 257 264 270 278 288 294 291 283 288 298 299 301 306 312 317 318 315 310 311 316 317 320 322 321 317 315 316 317 317 316 318 320 322 321 310 315